AFR44MA LFBD-LFML

Flight info

Callsign AFR44MA
Flight time 0h 51m
Altitude 33000
Route OBLOC DCT SECHE DCT SOVET DCT FJR
Aircraft E190/M-SDE3GILORVW/S

Departure

Time 2026-05-06 19:53
Airport Bordeaux–Mérignac Airport (LFBD)

Arrival

Time 2026-05-06 20:44
Airport Marseille Provence Airport (LFML)
Time Latitude Longitude Altitude Speed Heading
2026-05-06 19:38 44.82979 -0.70463 162 ft 0 kts 357°
2026-05-06 19:49 44.82982 -0.70462 162 ft 1 kts
2026-05-06 19:50 44.82984 -0.70432 162 ft 7 kts 97°
2026-05-06 19:50 44.82940 -0.70389 162 ft 9 kts 197°
2026-05-06 19:50 44.82886 -0.70455 162 ft 11 kts 225°
2026-05-06 19:50 44.82834 -0.70421 162 ft 11 kts 106°
2026-05-06 19:51 44.82809 -0.70307 162 ft 14 kts 108°
2026-05-06 19:51 44.82776 -0.70154 162 ft 19 kts 107°
2026-05-06 19:51 44.82740 -0.69986 162 ft 11 kts 106°
2026-05-06 19:51 44.82684 -0.69941 162 ft 11 kts 188°
2026-05-06 19:52 44.82605 -0.69973 163 ft 11 kts 196°
2026-05-06 19:52 44.82552 -0.70046 164 ft 12 kts 265°
2026-05-06 19:52 44.82573 -0.70159 164 ft 13 kts 287°
2026-05-06 19:52 44.82606 -0.70314 164 ft 26 kts 285°
2026-05-06 19:53 44.82749 -0.70994 156 ft 118 kts 286°
2026-05-06 19:53 44.83055 -0.72440 389 ft 181 kts 287°
2026-05-06 19:53 44.83456 -0.74275 1077 ft 201 kts 287°
2026-05-06 19:53 44.83753 -0.76191 1495 ft 202 kts 269°
2026-05-06 19:54 44.83157 -0.78109 1799 ft 234 kts 224°
2026-05-06 19:54 44.81685 -0.79114 2846 ft 237 kts 193°
2026-05-06 19:54 44.80022 -0.79400 3825 ft 250 kts 179°
2026-05-06 19:54 44.78286 -0.78880 4714 ft 262 kts 159°
2026-05-06 19:55 44.76601 -0.77808 5711 ft 269 kts 154°
2026-05-06 19:55 44.74913 -0.76631 6689 ft 273 kts 154°
2026-05-06 19:55 44.73205 -0.75411 7610 ft 277 kts 152°
2026-05-06 19:55 44.71503 -0.74090 8486 ft 282 kts 148°
2026-05-06 19:56 44.70120 -0.72201 9288 ft 287 kts 120°
2026-05-06 19:56 44.69557 -0.69518 10165 ft 290 kts 95°
2026-05-06 19:56 44.69478 -0.66605 10743 ft 306 kts 90°
2026-05-06 19:56 44.69487 -0.63559 11396 ft 317 kts 91°
2026-05-06 19:57 44.69383 -0.60432 12216 ft 323 kts 93°
2026-05-06 19:57 44.69260 -0.57259 13085 ft 327 kts 93°
2026-05-06 19:57 44.69136 -0.54044 13855 ft 335 kts 93°
2026-05-06 19:57 44.68768 -0.50805 14057 ft 339 kts 109°
2026-05-06 19:58 44.67815 -0.47798 14053 ft 336 kts 115°
2026-05-06 19:58 44.66925 -0.44797 14236 ft 330 kts 110°
2026-05-06 19:58 44.66129 -0.41743 14646 ft 334 kts 109°
2026-05-06 19:58 44.65365 -0.38647 15030 ft 336 kts 109°
2026-05-06 19:59 44.64620 -0.35520 15589 ft 337 kts 108°
2026-05-06 19:59 44.63892 -0.32363 16483 ft 342 kts 108°
2026-05-06 19:59 44.63168 -0.29162 17317 ft 347 kts 108°
2026-05-06 19:59 44.62432 -0.25886 17852 ft 363 kts 108°
2026-05-06 20:00 44.61654 -0.22438 18215 ft 381 kts 108°
2026-05-06 20:00 44.60843 -0.18826 18720 ft 394 kts 108°
2026-05-06 20:00 44.60007 -0.15110 19208 ft 406 kts 108°
2026-05-06 20:00 44.59150 -0.11301 19832 ft 412 kts 108°
2026-05-06 20:01 44.58289 -0.07472 20685 ft 411 kts 107°
2026-05-06 20:01 44.57430 -0.03654 21543 ft 409 kts 108°
2026-05-06 20:01 44.56575 0.00139 22344 ft 407 kts 108°
2026-05-06 20:01 44.55718 0.03933 22831 ft 415 kts 108°
2026-05-06 20:02 44.54834 0.07827 23214 ft 423 kts 108°
2026-05-06 20:02 44.53930 0.11800 23566 ft 432 kts 108°
2026-05-06 20:02 44.53011 0.15836 24100 ft 436 kts 108°
2026-05-06 20:02 44.52088 0.19887 24791 ft 436 kts 108°
2026-05-06 20:03 44.51168 0.23919 25558 ft 434 kts 108°
2026-05-06 20:03 44.50252 0.27933 26294 ft 431 kts 108°
2026-05-06 20:03 44.49338 0.31928 26968 ft 430 kts 108°
2026-05-06 20:03 44.48425 0.35910 27619 ft 429 kts 108°
2026-05-06 20:04 44.47513 0.39884 28225 ft 428 kts 108°
2026-05-06 20:04 44.46601 0.43841 28818 ft 427 kts 108°
2026-05-06 20:04 44.45691 0.47793 29363 ft 426 kts 108°
2026-05-06 20:04 44.44777 0.51738 29915 ft 426 kts 108°
2026-05-06 20:05 44.43865 0.55672 30467 ft 424 kts 108°
2026-05-06 20:05 44.42955 0.59592 31000 ft 423 kts 108°
2026-05-06 20:05 44.42046 0.63505 31510 ft 422 kts 108°
2026-05-06 20:05 44.41126 0.67398 31988 ft 421 kts 108°
2026-05-06 20:06 44.40194 0.71277 32459 ft 420 kts 108°
2026-05-06 20:06 44.39272 0.75152 32904 ft 420 kts 108°
2026-05-06 20:06 44.38372 0.78998 33089 ft 417 kts 108°
2026-05-06 20:06 44.37459 0.82852 33070 ft 418 kts 108°
2026-05-06 20:07 44.35630 0.90585 33056 ft 420 kts 108°
2026-05-06 20:07 44.33792 0.98332 33056 ft 420 kts 108°
2026-05-06 20:08 44.31955 1.06084 33001 ft 421 kts 108°
2026-05-06 20:08 44.30141 1.13857 33007 ft 421 kts 108°
2026-05-06 20:09 44.28311 1.21610 33006 ft 420 kts 108°
2026-05-06 20:09 44.26471 1.29355 33005 ft 421 kts 108°
2026-05-06 20:10 44.24610 1.37097 33007 ft 421 kts 108°
2026-05-06 20:10 44.22744 1.44824 33006 ft 421 kts 109°
2026-05-06 20:11 44.20863 1.52550 33006 ft 421 kts 109°
2026-05-06 20:11 44.18991 1.60268 33006 ft 420 kts 108°
2026-05-06 20:12 44.17111 1.67992 33005 ft 421 kts 109°
2026-05-06 20:12 44.15261 1.75678 33006 ft 421 kts 109°
2026-05-06 20:13 44.13366 1.83380 33007 ft 420 kts 109°
2026-05-06 20:13 44.11485 1.91093 33006 ft 421 kts 109°
2026-05-06 20:14 44.09577 1.98793 33007 ft 421 kts 109°
2026-05-06 20:14 44.07674 2.06508 33006 ft 421 kts 109°
2026-05-06 20:15 44.05766 2.14202 33005 ft 421 kts 109°
2026-05-06 20:15 44.03842 2.21891 33006 ft 421 kts 109°
2026-05-06 20:16 44.01926 2.29595 33006 ft 422 kts 109°
2026-05-06 20:16 43.99988 2.37297 33007 ft 422 kts 109°
2026-05-06 20:17 43.98013 2.45167 33042 ft 441 kts 109°
2026-05-06 20:17 43.95918 2.53358 33003 ft 457 kts 110°
2026-05-06 20:18 43.93755 2.61709 32999 ft 463 kts 109°
2026-05-06 20:18 43.91598 2.70121 33003 ft 463 kts 109°
2026-05-06 20:19 43.89440 2.78537 33001 ft 464 kts 110°
2026-05-06 20:19 43.87281 2.86945 33003 ft 463 kts 110°
2026-05-06 20:20 43.85107 2.95347 33005 ft 464 kts 110°
2026-05-06 20:20 43.82930 3.03795 32643 ft 464 kts 109°
2026-05-06 20:21 43.81854 3.07934 32971 ft 461 kts 110°
2026-05-06 20:21 43.80779 3.12092 33027 ft 456 kts 110°
2026-05-06 20:21 43.78658 3.20244 32597 ft 436 kts 110°
2026-05-06 20:22 43.77639 3.24143 32084 ft 426 kts 110°
2026-05-06 20:22 43.76645 3.27962 31500 ft 419 kts 110°
2026-05-06 20:22 43.75659 3.31723 30865 ft 413 kts 110°
2026-05-06 20:22 43.74683 3.35438 30154 ft 409 kts 110°
2026-05-06 20:23 43.73712 3.39132 29364 ft 408 kts 110°
2026-05-06 20:23 43.72741 3.42810 28579 ft 406 kts 110°
2026-05-06 20:23 43.71775 3.46466 27803 ft 404 kts 110°
2026-05-06 20:23 43.70812 3.50103 27002 ft 402 kts 110°
2026-05-06 20:24 43.69857 3.53728 26137 ft 401 kts 110°
2026-05-06 20:24 43.68921 3.57362 25223 ft 402 kts 110°
2026-05-06 20:24 43.68277 3.59761 24571 ft 402 kts 110°
2026-05-06 20:24 43.67319 3.63399 23530 ft 404 kts 110°
2026-05-06 20:25 43.66073 3.68127 22923 ft 387 kts 110°
2026-05-06 20:25 43.65160 3.71585 22269 ft 381 kts 110°
2026-05-06 20:25 43.64248 3.75009 21530 ft 378 kts 110°
2026-05-06 20:25 43.63635 3.77301 21034 ft 375 kts 110°
2026-05-06 20:26 43.62725 3.80662 20324 ft 372 kts 110°
2026-05-06 20:26 43.61834 3.83913 20357 ft 348 kts 111°
2026-05-06 20:26 43.60960 3.86961 21041 ft 346 kts 111°
2026-05-06 20:26 43.60066 3.90133 21081 ft 355 kts 111°
2026-05-06 20:27 43.59097 3.93369 20959 ft 372 kts 115°
2026-05-06 20:27 43.57919 3.96581 20244 ft 375 kts 117°
2026-05-06 20:27 43.56596 3.99584 20181 ft 364 kts 127°
2026-05-06 20:27 43.55010 4.02323 19897 ft 372 kts 129°
2026-05-06 20:28 43.53338 4.05073 19189 ft 372 kts 130°
2026-05-06 20:28 43.51703 4.07799 18571 ft 366 kts 129°
2026-05-06 20:28 43.50106 4.10506 17861 ft 363 kts 129°
2026-05-06 20:28 43.48525 4.13198 17086 ft 361 kts 129°
2026-05-06 20:29 43.46972 4.15842 16830 ft 344 kts 129°
2026-05-06 20:29 43.45494 4.18328 16700 ft 330 kts 129°
2026-05-06 20:29 43.44151 4.20939 16591 ft 340 kts 120°
2026-05-06 20:29 43.43071 4.23869 16504 ft 346 kts 114°
2026-05-06 20:30 43.42131 4.26934 16413 ft 349 kts 111°
2026-05-06 20:30 43.40340 4.33158 15960 ft 349 kts 112°
2026-05-06 20:30 43.39429 4.36193 15703 ft 348 kts 112°
2026-05-06 20:31 43.38517 4.39256 15456 ft 346 kts 112°
2026-05-06 20:31 43.37607 4.42310 15211 ft 344 kts 112°
2026-05-06 20:31 43.36706 4.45355 14947 ft 343 kts 112°
2026-05-06 20:31 43.35819 4.48346 14689 ft 331 kts 112°
2026-05-06 20:32 43.34971 4.51215 14441 ft 318 kts 112°
2026-05-06 20:32 43.34162 4.53994 14175 ft 309 kts 112°
2026-05-06 20:32 43.33361 4.56715 13805 ft 309 kts 112°
2026-05-06 20:32 43.32549 4.59461 13260 ft 311 kts 112°
2026-05-06 20:33 43.31754 4.62210 12697 ft 310 kts 112°
2026-05-06 20:33 43.30948 4.64941 12147 ft 308 kts 112°
2026-05-06 20:33 43.30130 4.67645 11606 ft 306 kts 112°
2026-05-06 20:33 43.29330 4.70343 11019 ft 305 kts 112°
2026-05-06 20:34 43.28546 4.73056 10416 ft 305 kts 111°
2026-05-06 20:34 43.27774 4.75767 9815 ft 305 kts 111°
2026-05-06 20:34 43.27002 4.78477 9206 ft 305 kts 111°
2026-05-06 20:34 43.26233 4.81179 8613 ft 303 kts 111°
2026-05-06 20:35 43.25465 4.83869 8009 ft 298 kts 111°
2026-05-06 20:35 43.24733 4.86443 7391 ft 283 kts 111°
2026-05-06 20:35 43.24047 4.88896 6770 ft 270 kts 110°
2026-05-06 20:35 43.23675 4.91354 6168 ft 259 kts 93°
2026-05-06 20:36 43.23604 4.93796 5566 ft 253 kts 92°
2026-05-06 20:36 43.23529 4.96180 5080 ft 246 kts 92°
2026-05-06 20:36 43.23460 4.98383 5430 ft 215 kts 92°
2026-05-06 20:36 43.23395 5.00437 5237 ft 222 kts 92°
2026-05-06 20:37 43.23327 5.02642 4602 ft 239 kts 92°
2026-05-06 20:37 43.23246 5.04866 4576 ft 225 kts 92°
2026-05-06 20:37 43.23179 5.06999 4367 ft 225 kts 92°
2026-05-06 20:37 43.23111 5.09139 4105 ft 224 kts 92°
2026-05-06 20:38 43.23044 5.11224 4086 ft 212 kts 92°
2026-05-06 20:38 43.22979 5.13241 4066 ft 212 kts 92°
2026-05-06 20:38 43.22915 5.15267 4060 ft 213 kts 92°
2026-05-06 20:38 43.22847 5.17301 4060 ft 214 kts 92°
2026-05-06 20:39 43.22795 5.19329 4055 ft 210 kts 91°
2026-05-06 20:39 43.22840 5.21269 4007 ft 199 kts 78°
2026-05-06 20:39 43.23396 5.22950 3976 ft 194 kts 49°
2026-05-06 20:39 43.24392 5.24126 3927 ft 185 kts 35°
2026-05-06 20:40 43.25459 5.25178 3659 ft 196 kts 36°
2026-05-06 20:40 43.26588 5.26320 3395 ft 206 kts 36°
2026-05-06 20:40 43.27744 5.27514 3154 ft 210 kts 37°
2026-05-06 20:40 43.28970 5.28580 3080 ft 201 kts 29°
2026-05-06 20:41 43.30121 5.29692 3137 ft 207 kts 44°
2026-05-06 20:41 43.31206 5.31046 2938 ft 215 kts 31°
2026-05-06 20:41 43.32621 5.31448 2658 ft 214 kts 352°
2026-05-06 20:41 43.34083 5.31014 2197 ft 217 kts 345°
2026-05-06 20:42 43.35482 5.30518 2270 ft 190 kts 345°
2026-05-06 20:42 43.36767 5.30049 2219 ft 198 kts 344°
2026-05-06 20:42 43.38037 5.29375 1828 ft 193 kts 327°
2026-05-06 20:42 43.39016 5.28180 1474 ft 184 kts 313°
2026-05-06 20:43 43.39882 5.26921 1117 ft 179 kts 313°
2026-05-06 20:43 43.40725 5.25722 843 ft 168 kts 314°
2026-05-06 20:43 43.41481 5.24601 624 ft 153 kts 312°
2026-05-06 20:43 43.42212 5.23582 365 ft 146 kts 314°
2026-05-06 20:44 43.42916 5.22569 142 ft 147 kts 314°
2026-05-06 20:44 43.43611 5.21580 41 ft 135 kts 316°
2026-05-06 20:44 43.44098 5.20895 27 ft 66 kts 314°
2026-05-06 20:44 43.44351 5.20534 23 ft 45 kts 314°
2026-05-06 20:45 43.44549 5.20255 20 ft 24 kts 313°
2026-05-06 20:45 43.44651 5.20261 17 ft 16 kts 40°
2026-05-06 20:45 43.44653 5.20374 17 ft 13 kts 134°
2026-05-06 20:45 43.44585 5.20471 17 ft 15 kts 134°
2026-05-06 20:46 43.44510 5.20579 17 ft 16 kts 134°
2026-05-06 20:46 43.44428 5.20695 18 ft 18 kts 134°
2026-05-06 20:46 43.44346 5.20814 18 ft 17 kts 132°
2026-05-06 20:46 43.44290 5.20962 19 ft 18 kts 122°
2026-05-06 20:47 43.44203 5.21086 21 ft 18 kts 137°
2026-05-06 20:47 43.44116 5.21208 23 ft 18 kts 134°
2026-05-06 20:47 43.44028 5.21334 25 ft 19 kts 133°
2026-05-06 20:47 43.43939 5.21463 28 ft 16 kts 132°
2026-05-06 20:48 43.43927 5.21561 33 ft 8 kts 65°
2026-05-06 20:48 43.43947 5.21594 37 ft 6 kts 43°
2026-05-06 20:48 43.43981 5.21665 40 ft 10 kts 83°
2026-05-06 20:48 43.43935 5.21769 41 ft 15 kts 134°
2026-05-06 20:49 43.43861 5.21870 43 ft 15 kts 135°
2026-05-06 20:49 43.43786 5.21982 44 ft 15 kts 120°
2026-05-06 20:49 43.43830 5.22092 45 ft 11 kts 44°
2026-05-06 20:49 43.43859 5.22187 47 ft 12 kts 118°
2026-05-06 20:50 43.43774 5.22237 50 ft 15 kts 162°
2026-05-06 20:50 43.43739 5.22359 52 ft 17 kts 70°
2026-05-06 20:50 43.43778 5.22507 54 ft 11 kts 47°
2026-05-06 20:50 43.43843 5.22554 53 ft 13 kts
2026-05-06 20:51 43.43918 5.22523 49 ft 8 kts 309°
2026-05-06 20:51 43.43920 5.22456 50 ft 3 kts 264°
2026-05-06 20:51 43.43920 5.22454 50 ft 0 kts 264°